VOE225 EGJJ-LFBO

Flight info

Callsign VOE225
Flight time 1h 1m
Altitude 19000
Route DIN R14 NTS/N0454F290 UM616 TUPAR DCT CNA DCT UVELI DCT SECHE
Aircraft A320/M-SDE3FGHIRWY/LB1

Departure

Time 2026-01-18 05:40
Airport Jersey Airport (EGJJ)

Arrival

Time 2026-01-18 06:42
Airport Toulouse-Blagnac Airport (LFBO)
Time Latitude Longitude Altitude Speed Heading
2026-01-18 05:07 49.20481 -2.19565 284 ft 0 kts 15°
2026-01-18 05:23 49.20450 -2.19574 288 ft 3 kts 357°
2026-01-18 05:24 49.20423 -2.19554 293 ft 0 kts 285°
2026-01-18 05:28 49.20439 -2.19833 284 ft 15 kts 265°
2026-01-18 05:28 49.20521 -2.20026 284 ft 9 kts 290°
2026-01-18 05:29 49.20558 -2.20190 284 ft 7 kts 287°
2026-01-18 05:29 49.20584 -2.20321 284 ft 6 kts 287°
2026-01-18 05:30 49.20603 -2.20417 284 ft 4 kts 285°
2026-01-18 05:30 49.20613 -2.20478 284 ft 2 kts 285°
2026-01-18 05:31 49.20615 -2.20490 284 ft 0 kts 285°
2026-01-18 05:38 49.20635 -2.20640 287 ft 18 kts 287°
2026-01-18 05:39 49.20886 -2.18520 625 ft 146 kts 81°
2026-01-18 05:39 49.21029 -2.16969 1540 ft 149 kts 83°
2026-01-18 05:40 49.18187 -2.11324 3755 ft 234 kts 152°
2026-01-18 05:41 49.16656 -2.10186 4340 ft 252 kts 152°
2026-01-18 05:41 49.15050 -2.08989 4917 ft 259 kts 152°
2026-01-18 05:41 49.11477 -2.08081 6700 ft 264 kts 177°
2026-01-18 05:42 49.05929 -2.08082 9562 ft 269 kts 178°
2026-01-18 05:43 49.02123 -2.08096 10378 ft 287 kts 179°
2026-01-18 05:43 49.00042 -2.08099 10652 ft 311 kts 179°
2026-01-18 05:44 48.92920 -2.08128 11726 ft 360 kts 179°
2026-01-18 05:44 48.87890 -2.08151 13094 ft 368 kts 179°
2026-01-18 05:45 48.82721 -2.08171 14401 ft 375 kts 179°
2026-01-18 05:45 48.77462 -2.08176 15672 ft 381 kts 179°
2026-01-18 05:46 48.72120 -2.08182 16921 ft 387 kts 179°
2026-01-18 05:46 48.69417 -2.08187 17528 ft 390 kts 179°
2026-01-18 05:46 48.63951 -2.08204 18631 ft 395 kts 180°
2026-01-18 05:47 48.55796 -2.06345 20107 ft 402 kts 158°
2026-01-18 05:48 48.50729 -2.02908 21046 ft 406 kts 157°
2026-01-18 05:48 48.45553 -1.99419 21910 ft 409 kts 157°
2026-01-18 05:49 48.40333 -1.95911 22739 ft 413 kts 157°
2026-01-18 05:49 48.35065 -1.92383 23537 ft 416 kts 157°
2026-01-18 05:50 48.32417 -1.90623 23879 ft 417 kts 158°
2026-01-18 05:50 48.23916 -1.87920 24819 ft 419 kts 171°
2026-01-18 05:51 48.21038 -1.87196 25120 ft 419 kts 171°
2026-01-18 05:53 47.94990 -1.80686 27392 ft 422 kts 171°
2026-01-18 05:55 47.72187 -1.75018 29795 ft 412 kts 171°
2026-01-18 05:57 47.52385 -1.70152 31343 ft 416 kts 171°
2026-01-18 05:59 47.26336 -1.63793 32977 ft 428 kts 172°
2026-01-18 06:01 47.05626 -1.47530 32976 ft 444 kts 140°
2026-01-18 06:03 46.87972 -1.24458 32985 ft 444 kts 140°
2026-01-18 06:05 46.69578 -1.00586 32989 ft 441 kts 140°
2026-01-18 06:06 46.53554 -0.79966 33001 ft 438 kts 140°
2026-01-18 06:08 46.33305 -0.61836 32992 ft 431 kts 163°
2026-01-18 06:10 46.10504 -0.51360 32996 ft 429 kts 162°
2026-01-18 06:13 45.85078 -0.39797 33001 ft 422 kts 162°
2026-01-18 06:15 45.62947 -0.29085 32997 ft 418 kts 154°
2026-01-18 06:17 45.42059 -0.14667 32977 ft 415 kts 154°
2026-01-18 06:19 45.21279 -0.00452 32945 ft 414 kts 154°
2026-01-18 06:21 45.00593 0.13607 32944 ft 412 kts 154°
2026-01-18 06:23 44.79968 0.27482 30018 ft 413 kts 152°
2026-01-18 06:24 44.63739 0.38338 23648 ft 440 kts 152°
2026-01-18 06:25 44.58249 0.41972 21482 ft 432 kts 153°
2026-01-18 06:25 44.52830 0.45570 20894 ft 430 kts 153°
2026-01-18 06:25 44.50128 0.47367 20897 ft 430 kts 153°
2026-01-18 06:26 44.42124 0.52672 19882 ft 423 kts 154°
2026-01-18 06:27 44.36803 0.56169 19327 ft 417 kts 154°
2026-01-18 06:27 44.34187 0.57877 18451 ft 413 kts 154°
2026-01-18 06:27 44.29024 0.61236 16664 ft 406 kts 154°
2026-01-18 06:28 44.21454 0.66170 14277 ft 395 kts 154°
2026-01-18 06:29 44.16510 0.69384 12686 ft 389 kts 154°
2026-01-18 06:29 44.11627 0.72555 11435 ft 384 kts 154°
2026-01-18 06:29 44.09218 0.74115 10634 ft 381 kts 154°
2026-01-18 06:30 44.02045 0.78756 9906 ft 363 kts 154°
2026-01-18 06:31 43.97729 0.81539 9719 ft 324 kts 154°
2026-01-18 06:31 43.93835 0.84043 9450 ft 294 kts 154°
2026-01-18 06:31 43.92021 0.85205 9313 ft 281 kts 154°
2026-01-18 06:32 43.85787 0.89799 7931 ft 227 kts 133°
2026-01-18 06:33 43.84863 0.91550 7454 ft 224 kts 125°
2026-01-18 06:33 43.83992 0.93343 7067 ft 224 kts 125°
2026-01-18 06:34 43.81445 0.98645 6151 ft 218 kts 124°
2026-01-18 06:34 43.79775 1.02113 5471 ft 216 kts 125°
2026-01-18 06:35 43.78147 1.05575 4817 ft 214 kts 118°
2026-01-18 06:35 43.77651 1.07521 4484 ft 216 kts 105°
2026-01-18 06:36 43.77835 1.11702 3733 ft 224 kts 76°
2026-01-18 06:36 43.78638 1.17926 2995 ft 219 kts 105°
2026-01-18 06:37 43.77053 1.21382 3006 ft 215 kts 142°
2026-01-18 06:37 43.75858 1.22631 2997 ft 215 kts 143°
2026-01-18 06:38 43.72340 1.26312 2572 ft 191 kts 143°
2026-01-18 06:38 43.70514 1.28223 2117 ft 145 kts 143°
2026-01-18 06:39 43.69735 1.29036 1928 ft 138 kts 145°
2026-01-18 06:39 43.68222 1.30616 1544 ft 137 kts 145°
2026-01-18 06:40 43.66697 1.32208 1130 ft 137 kts 146°
2026-01-18 06:40 43.64444 1.34567 552 ft 134 kts 146°
2026-01-18 06:41 43.63295 1.35738 493 ft 56 kts 143°
2026-01-18 06:41 43.62918 1.36139 491 ft 31 kts 143°
2026-01-18 06:42 43.62742 1.36311 494 ft 31 kts 145°
2026-01-18 06:42 43.62473 1.37045 489 ft 33 kts 84°
2026-01-18 06:43 43.62522 1.37278 491 ft 24 kts 54°
2026-01-18 06:43 43.62598 1.37404 489 ft 0 kts 50°
2026-01-18 06:44 43.62688 1.37465 494 ft 13 kts 344°
2026-01-18 06:45 43.62886 1.37272 491 ft 20 kts 323°
2026-01-18 06:45 43.63048 1.36977 494 ft 16 kts 295°
2026-01-18 06:46 43.63075 1.36950 486 ft 4 kts
2026-01-18 06:46 43.63127 1.37045 490 ft 7 kts 65°
2026-01-18 06:47 43.63131 1.37058 492 ft 0 kts 65°